This is the latest recevied weather packets stored in our database for station/object N1LJK-13. If no packets are shown the sender has not sent any weather packets the latest 10 day(s).
| Time | Temp. | Humidity | Pressure | Rain* | Wind** | Luminosity | Snow |
|---|---|---|---|---|---|---|---|
| 1777603619 | 7.78° C | 98% | 1007.8 hPa | 0 mm | - | - | - |
| 1777602419 | 7.78° C | 98% | 1007.9 hPa | 0 mm | - | - | - |
| 1777601219 | 7.78° C | 98% | 1008.1 hPa | 0 mm | - | - | - |
| 1777600019 | 7.78° C | 98% | 1008 hPa | 0 mm | - | - | - |
| 1777598819 | 7.78° C | 98% | 1008 hPa | 0 mm | - | - | - |
| 1777597619 | 7.78° C | 98% | 1008.1 hPa | 0 mm | - | - | - |
| 1777595223 | 7.78° C | 98% | 1007.9 hPa | 0 mm | - | - | - |
| 1777594019 | 7.78° C | 98% | 1007.6 hPa | 0 mm | - | - | - |
| 1777592819 | 7.78° C | 98% | 1007.7 hPa | 0 mm | - | - | - |
| 1777591619 | 7.78° C | 98% | 1007.2 hPa | 0 mm | - | - | - |
| 1777590419 | 7.78° C | 98% | 1007.4 hPa | 0 mm | - | - | - |
| 1777589219 | 7.78° C | 98% | 1007.2 hPa | 0 mm | - | - | - |
| 1777588019 | 7.78° C | 98% | 1007.2 hPa | 0 mm | - | - | - |
| 1777586820 | 8.33° C | 98% | 1007.5 hPa | 0 mm | - | - | - |
| 1777585619 | 8.33° C | 98% | 1007.5 hPa | 0.25 mm | - | - | - |
| 1777584420 | 8.33° C | 98% | 1007.9 hPa | 0.25 mm | - | - | - |
| 1777583220 | 7.78° C | 98% | 1007.4 hPa | 0.25 mm | - | - | - |
| 1777582020 | 7.78° C | 98% | 1007.4 hPa | 0.25 mm | - | - | - |
| 1777580819 | 8.33° C | 98% | 1008 hPa | 0.25 mm | - | - | - |
| 1777579619 | 7.78° C | 98% | 1008.3 hPa | 1.78 mm | - | - | - |
| 1777578419 | 7.78° C | 98% | 1008.6 hPa | 2.29 mm | - | - | - |
| 1777577219 | 7.78° C | 98% | 1008.5 hPa | 2.29 mm | - | - | - |
| 1777576020 | 7.22° C | 98% | 1008.9 hPa | 1.27 mm | - | - | - |
| 1777574819 | 7.78° C | 98% | 1009 hPa | 0.25 mm | - | - | - |
| 1777573620 | 7.78° C | 98% | 1009.2 hPa | 0 mm | - | - | - |
* Rain latest hour (hover to see other rain measurements)
** Current wind speed in m/s (hover to see current wind gust speed)